Tracking 31027 objects as of 19-Jul-2025
HD Live streaming from Space Station
objects crossing your sky now

NOAA 16 DEB

Track NOAA 16 DEB now!
10-day predictions


NORAD ID: 41076
Int'l Code: 2000-055AK
Perigee: 479.0 km
Apogee: 597.6 km
Inclination: 99.2 °
Period: 95.3 minutes
Semi major axis: 6909 km
RCS: Unknown
Launch date: September 21, 2000
Source: United States (US)
Launch site: AIR FORCE WESTERN TEST RANGE (AFWTR)

Note: This is SATELLITE DEBRIS
Your satellite tracking list
STARLINK-2062
Track 1 satellite(s)




NASA's NSSDC Master Catalog

Two Line Element Set (TLE):
1 41076U 00055AK  25199.72927992  .00033616  00000-0  18062-2 0  9999
2 41076  99.1930   3.9434 0085847 155.7652 204.7648 15.11650084515033
Source of the keplerian elements: AFSPC